Wetbulb
66.75 63.04 58.94 56.22 46.28 44.57 40.34 44.68 51.30 51.37 53.51 57.54 56.80 54.77 52.52 54.24 55.00 49.53 60.46 66.40 66.45 65.74 70.24 72.43 73.63 73.10 72.54 72.55 72.15 71.56 71.06 70.59 70.23 69.44 68.54 67.72 67.59 67.43 67.19 67.35 67.11 66.98 66.84 66.47 66.06 65.99 65.88 65.70 65.81
60.47 59.88 57.50 53.22 43.89 40.27 40.41 47.91 48.53 52.17 56.89 58.51 57.34 56.04 55.76 56.01 60.48 61.48 62.26 66.76 66.47 67.07 69.93 70.76 73.45 73.05 73.10 72.63 72.21 71.74 71.17 70.74 70.37 69.85 68.92 68.08 67.93 67.85 67.80 67.58 67.21 67.06 66.98 66.85 66.79 66.55 66.07 66.15 66.15
59.36 57.46 50.36 48.66 44.16 39.86 41.53 49.66 53.66 57.35 59.30 58.25 57.19 58.37 57.63 58.92 63.40 62.58 64.35 66.77 65.26 66.90 68.89 69.61 73.33 73.05 73.00 72.95 72.43 71.84 71.42 71.07 70.18 69.46 69.41 68.88 68.57 68.59 68.45 67.86 67.68 67.78 67.81 68.00 68.05 67.86 67.70 67.78 67.56
57.37 55.53 51.52 45.01 43.78 47.64 47.64 50.79 54.17 55.11 58.18 59.30 58.07 55.22 57.33 62.88 63.80 63.91 67.64 66.56 65.03 65.96 67.90 70.41 73.23 73.25 73.15 73.10 72.68 72.06 71.69 71.14 70.73 69.93 69.60 69.35 68.70 69.30 69.49 68.23 68.11 68.31 68.57 68.78 68.93 69.05 68.90 68.90 68.84
55.49 50.87 43.01 42.12 44.66 49.30 52.48 53.61 53.28 54.35 56.82 57.36 57.25 54.85 55.52 61.90 65.47 67.69 66.84 66.67 64.17 64.96 66.16 68.38 73.15 73.28 73.30 73.33 72.83 72.19 71.99 71.57 71.25 71.04 70.23 69.60 70.09 69.81 69.17 68.63 68.85 69.03 69.18 69.55 69.70 69.78 69.83 70.17 69.88
50.28 49.16 41.40 40.86 44.64 50.09 51.25 52.60 52.93 56.11 57.99 57.57 56.56 54.76 55.76 60.65 65.68 67.11 67.03 65.58 65.13 64.48 64.95 65.98 72.63 73.00 73.10 73.13 72.93 72.33 71.84 71.45 71.37 71.32 71.12 70.92 70.76 70.34 69.56 69.26 69.33 69.63 69.63 69.94 69.91 70.19 69.86 70.41 69.58
48.49 43.77 41.23 43.43 45.61 48.02 50.46 52.57 51.86 52.89 54.77 55.84 57.01 53.88 55.17 59.35 62.40 67.58 67.08 65.99 64.97 64.21 63.92 64.76 69.12 71.50 73.28 72.98 72.65 72.33 71.86 71.64 71.49 71.62 71.32 71.23 71.25 71.25 70.51 70.07 69.81 69.64 69.96 70.19 70.58 70.21 70.37 70.56 69.34
52.14 47.71 42.77 43.39 44.81 46.02 51.15 51.93 52.26 54.35 54.94 58.16 58.61 53.34 52.06 57.38 61.36 66.12 65.87 65.18 64.32 63.84 62.66 63.35 66.85 68.73 69.38 70.18 72.95 72.60 72.32 71.88 71.71 71.78 71.52 71.35 71.62 71.64 71.08 71.01 70.97 70.03 70.31 70.78 71.10 70.81 70.71 70.53 69.62
54.15 44.07 40.71 43.70 45.79 47.92 50.08 49.10 53.75 56.71 55.59 56.29 57.14 57.01 58.78 60.56 60.52 59.71 58.44 59.91 62.26 65.90 63.23 62.28 65.29 66.67 67.92 68.30 70.12 72.47 72.43 72.33 71.95 71.66 71.76 70.56 68.81 68.99 69.22 70.25 70.71 70.34 70.49 70.88 71.30 71.70 71.18 70.22 68.75
51.18 44.39 45.33 49.71 50.86 48.76 52.36 51.80 52.60 53.39 53.31 53.98 55.80 58.27 59.93 60.10 59.02 58.31 57.72 58.84 59.67 63.40 64.82 64.83 65.57 64.89 66.23 67.78 66.94 69.41 69.19 68.97 69.26 68.93 68.67 68.74 67.69 66.99 68.68 69.45 70.78 70.73 70.78 71.64 71.90 71.83 70.92 69.14 64.66
51.74 48.18 51.78 52.34 54.06 54.10 52.82 52.61 54.87 52.78 50.54 53.85 54.78 56.58 58.00 58.31 58.02 57.69 57.95 57.94 58.73 62.69 65.00 66.47 66.09 65.62 64.92 65.96 66.11 67.74 68.52 67.93 68.21 67.95 67.49 68.03 67.58 67.02 67.76 66.44 67.56 67.38 70.46 68.43 69.50 69.34 67.76 65.21 64.10
47.47 53.38 54.31 54.62 55.76 56.09 54.86 56.16 54.27 54.81 53.69 57.30 57.74 58.59 58.01 57.21 57.02 56.49 56.39 57.15 55.47 54.59 60.95 66.31 66.93 66.19 64.89 65.21 65.35 65.96 67.14 66.87 66.92 67.53 67.22 67.13 66.63 65.29 64.77 65.66 64.80 64.24 66.36 67.35 66.56 65.34 65.10 64.41 64.06
47.14 50.33 53.45 56.36 56.71 55.08 55.26 53.57 53.64 54.23 57.23 58.05 58.60 58.56 56.76 56.67 56.52 56.42 56.65 56.43 56.01 54.36 55.94 63.55 66.71 66.49 66.15 64.94 64.92 65.38 66.40 66.46 66.16 66.73 67.47 66.71 66.18 64.96 64.22 63.74 63.40 63.77 64.30 66.04 64.34 63.80 63.70 62.98 62.82
45.56 48.12 50.21 51.36 50.89 51.67 51.38 51.60 52.30 53.72 56.90 56.45 55.60 55.20 55.67 54.97 55.46 54.84 55.01 55.56 55.80 56.56 55.40 58.97 65.99 66.58 66.51 65.91 65.27 65.30 66.18 66.26 66.22 66.89 67.27 66.84 65.76 64.20 63.56 63.39 62.92 62.61 63.10 63.51 63.85 63.68 63.37 61.81 62.04
45.18 42.13 45.31 45.97 46.16 47.04 50.77 47.46 48.89 53.58 54.66 53.99 54.74 55.21 54.77 55.25 55.49 54.98 56.04 55.73 56.35 56.49 56.74 55.34 64.53 65.93 65.95 65.97 65.72 65.57 66.03 66.36 65.87 66.39 66.68 66.62 65.43 64.00 63.91 63.28 62.30 62.92 62.43 62.42 62.64 63.58 62.88 62.56 62.09
42.69 41.40 39.02 45.98 47.32 47.93 48.55 42.59 50.23 53.46 53.26 53.20 53.56 53.68 54.18 54.71 55.08 56.18 56.16 55.63 56.46 55.26 55.70 56.08 62.98 65.44 65.78 65.93 65.89 65.83 66.48 66.38 65.85 65.68 66.04 66.06 65.75 65.05 63.62 63.00 62.77 62.75 61.98 62.16 62.00 61.67 62.01 60.43 61.74
38.30 37.59 39.27 42.67 48.09 48.25 47.84 44.90 50.22 53.37 52.69 51.69 52.17 53.04 53.86 54.84 54.71 55.13 55.97 56.52 55.86 55.97 56.02 55.29 57.34 61.79 65.57 65.58 64.85 65.29 65.86 66.28 66.10 65.37 65.47 65.70 65.90 65.57 64.27 63.40 62.83 62.25 61.41 61.23 61.01 60.95 60.52 58.84 59.61
34.21 35.57 40.02 40.47 45.54 47.64 46.18 45.32 48.60 50.86 51.33 50.81 51.42 52.37 53.08 53.84 54.61 56.00 56.90 57.12 55.83 55.40 55.41 54.72 57.63 61.61 62.49 63.40 63.64 64.01 64.59 64.01 64.94 65.32 66.01 66.46 66.44 65.57 64.35 63.38 62.47 61.90 61.03 60.37 59.85 59.52 59.87 59.79 59.11
38.93 38.96 37.52 42.36 46.27 46.22 45.13 45.38 47.76 49.70 49.05 49.49 50.33 51.26 51.76 51.33 53.83 55.22 55.79 56.03 54.94 54.98 55.77 55.64 59.92 62.57 64.51 64.69 63.70 62.36 62.89 61.57 61.85 63.92 65.92 65.74 65.34 64.77 63.44 62.65 62.16 61.45 60.97 60.96 60.78 59.73 60.15 59.67 59.95
37.07 34.61 34.53 40.09 43.57 41.85 41.79 42.71 45.13 47.15 48.63 49.78 50.32 50.72 51.47 52.27 51.84 54.21 54.49 54.25 55.99 56.54 58.99 58.73 61.85 64.19 64.32 64.61 62.21 61.93 60.96 60.81 61.62 62.37 64.83 65.22 65.15 65.39 64.46 62.20 61.60 61.00 60.71 60.16 60.57 60.54 58.95 58.73 59.79
35.71 34.94 35.79 36.38 40.78 42.01 39.87 38.70 40.93 44.48 45.41 47.64 48.85 49.06 49.95 49.97 50.93 52.49 52.46 53.79 55.70 58.40 60.27 61.93 63.36 64.27 64.66 63.66 62.70 60.96 60.88 60.62 60.20 59.89 60.89 63.15 65.40 64.84 63.27 62.50 61.69 60.86 61.66 60.54 59.77 60.18 58.67 56.39 58.43
32.07 39.25 39.32 38.08 35.56 31.44 38.91 30.79 38.40 41.98 42.90 45.13 46.67 47.84 47.11 48.73 51.31 51.30 52.21 52.40 56.87 58.67 62.26 63.36 64.31 64.63 64.51 63.82 62.44 61.89 59.50 58.58 59.08 59.74 60.40 61.57 63.41 63.27 63.22 62.30 61.51 61.40 60.57 59.71 58.72 59.15 57.48 55.72 54.59
33.82 38.79 37.80 38.12 34.83 32.15 34.34 30.35 36.73 40.42 40.72 43.15 45.13 46.56 46.68 49.29 49.18 49.72 50.79 52.88 57.23 61.10 62.25 63.47 64.22 64.14 63.37 63.16 62.92 60.99 59.27 58.90 58.95 59.47 60.24 60.12 61.08 62.62 63.43 62.79 61.46 60.34 59.67 59.36 58.80 57.98 57.48 56.66 55.13
39.26 36.05 36.12 35.77 32.45 25.62 32.85 32.03 34.13 37.01 40.13 42.64 44.82 45.58 48.21 47.94 48.96 49.65 52.16 57.19 59.52 61.14 62.84 63.39 64.01 62.23 62.42 62.08 61.27 60.41 59.45 58.35 58.77 58.34 59.24 59.48 59.70 60.70 61.95 62.26 60.84 60.16 59.44 58.94 58.56 58.38 57.80 56.92 56.22
33.96 27.83 22.76 21.96 22.43 25.64 35.09 32.21 35.96 39.26 41.95 43.00 42.92 44.52 46.51 47.75 47.16 52.03 56.20 58.11 59.80 61.55 62.25 62.41 63.05 60.93 61.36 60.66 60.00 59.83 59.14 59.09 59.07 58.53 58.60 58.77 58.48 58.92 59.84 60.55 59.92 59.16 59.29 59.17 58.66 58.10 57.72 57.16 56.60
30.02 29.28 23.26 20.30 22.10 26.84 36.04 30.35 36.07 42.95 45.62 46.68 47.04 46.18 46.16 46.60 46.70 52.14 56.85 58.40 60.56 61.84 62.09 61.95 61.92 60.47 60.64 60.30 59.27 58.91 59.17 59.37 59.06 58.78 58.86 58.96 58.78 58.91 59.69 59.75 59.61 59.55 60.10 59.89 59.00 58.12 57.98 57.40 57.24
31.66 27.14 32.30 26.44 28.69 25.48 30.13 35.31 41.53 44.01 43.76 45.12 44.34 45.17 44.77 45.74 47.89 54.70 57.66 59.31 61.22 61.50 61.31 61.15 61.02 60.54 60.42 59.78 59.28 59.13 59.58 59.74 59.20 58.85 59.16 59.32 58.85 59.68 59.54 59.75 59.29 59.51 59.46 59.33 58.52 57.74 57.70 58.16 57.96
34.70 36.77 26.45 24.43 21.01 20.88 27.56 30.68 33.63 38.44 41.74 43.99 43.93 43.69 45.02 46.21 52.03 56.81 59.31 60.76 61.22 61.31 60.74 60.66 60.91 60.37 60.06 59.62 59.44 60.00 59.41 59.64 59.77 59.99 59.45 59.40 59.61 60.02 59.72 59.09 59.19 58.99 59.41 59.34 58.23 57.77 58.25 58.58 58.24
32.31 31.42 31.92 29.05 27.04 22.76 22.71 27.53 37.80 39.98 41.82 41.65 43.19 45.17 47.67 49.62 55.56 57.99 60.04 60.93 60.91 61.31 60.95 60.71 60.56 60.01 59.41 59.15 58.98 58.81 59.32 59.82 59.84 59.96 59.84 59.87 59.76 59.64 59.59 59.86 59.36 59.45 59.44 59.00 58.31 57.91 59.00 58.37 57.85
34.93 33.81 32.23 27.10 25.22 29.63 26.87 29.25 42.19 39.57 40.92 42.38 43.69 45.93 52.99 52.70 56.11 59.15 60.34 60.49 60.53 60.90 60.63 60.90 60.35 59.97 59.45 58.90 58.62 58.51 59.07 58.80 59.10 59.91 60.00 58.89 59.09 59.33 60.04 60.18 59.81 59.98 59.82 59.13 58.52 58.80 58.81 58.38 58.12
MSLP
1010.43 1010.85 1011.01 1010.87 1011.80 1011.73 1010.86 1008.88 1006.92 1005.43 1004.48 1003.42 1003.04 1003.20 1003.95 1003.91 1004.62 1004.99 1003.79 1004.10 1004.65 1005.39 1006.31 1006.72 1007.27 1007.84 1008.19 1008.44 1008.64 1008.78 1008.88 1008.93 1009.17 1009.55 1009.94 1010.27 1010.47 1010.70 1011.00 1011.30 1011.59 1011.81 1011.93 1012.07 1012.30 1012.44 1012.62 1012.74 1012.74
1010.18 1010.96 1011.24 1011.17 1011.55 1011.25 1009.77 1007.46 1006.06 1004.49 1003.56 1002.87 1002.69 1002.51 1003.03 1003.42 1003.46 1003.78 1003.83 1004.38 1004.65 1005.17 1006.07 1006.59 1007.14 1007.53 1007.66 1007.82 1008.01 1008.27 1008.56 1008.73 1008.91 1009.19 1009.62 1010.04 1010.40 1010.75 1011.03 1011.29 1011.45 1011.76 1012.02 1012.15 1012.32 1012.47 1012.48 1012.65 1012.73
1010.21 1010.51 1011.49 1011.12 1010.98 1010.22 1008.51 1006.34 1005.13 1004.15 1003.43 1002.52 1002.18 1002.01 1002.41 1002.66 1002.92 1003.37 1003.22 1003.93 1004.64 1005.24 1005.79 1006.34 1006.73 1007.09 1007.21 1007.45 1007.64 1007.93 1008.26 1008.58 1008.92 1009.06 1009.37 1009.85 1010.24 1010.57 1010.95 1011.19 1011.31 1011.55 1011.92 1012.16 1012.31 1012.42 1012.46 1012.58 1012.69
1010.25 1010.91 1011.45 1010.91 1010.01 1008.51 1006.90 1005.51 1004.99 1003.90 1002.82 1002.05 1001.84 1002.27 1002.08 1002.41 1002.88 1002.77 1003.37 1003.84 1004.42 1005.12 1005.61 1006.03 1006.26 1006.59 1006.85 1007.26 1007.60 1007.81 1008.10 1008.46 1008.89 1009.22 1009.56 1009.76 1010.12 1010.56 1010.76 1010.96 1011.06 1011.26 1011.56 1011.92 1012.11 1012.22 1012.35 1012.51 1012.70
1010.42 1011.13 1011.38 1010.62 1009.22 1007.74 1006.09 1004.97 1004.35 1003.70 1002.87 1002.09 1002.02 1002.47 1002.42 1002.05 1002.62 1002.93 1003.44 1003.89 1004.29 1005.11 1005.52 1005.66 1005.79 1006.27 1006.88 1007.15 1007.44 1007.63 1007.88 1008.23 1008.65 1009.02 1009.35 1009.70 1009.95 1010.41 1010.83 1010.93 1010.94 1011.11 1011.30 1011.54 1011.88 1012.06 1012.24 1012.37 1012.63
1010.61 1011.24 1011.38 1010.24 1008.47 1006.93 1005.51 1004.30 1003.81 1003.22 1002.41 1002.05 1002.05 1002.48 1002.63 1002.38 1002.90 1003.22 1003.54 1003.60 1004.00 1004.38 1005.08 1005.51 1006.05 1006.27 1006.34 1006.59 1007.02 1007.45 1007.72 1008.01 1008.29 1008.73 1009.15 1009.56 1009.96 1010.13 1010.58 1010.91 1011.07 1011.17 1011.38 1011.54 1011.74 1011.99 1012.13 1012.34 1012.52
1010.26 1011.35 1010.84 1009.62 1008.14 1006.67 1005.01 1003.74 1003.63 1003.13 1002.40 1001.88 1001.56 1002.33 1003.00 1002.65 1002.67 1003.23 1003.26 1003.75 1004.04 1004.42 1004.95 1005.26 1005.78 1006.16 1006.29 1006.25 1006.78 1007.24 1007.45 1007.73 1008.05 1008.43 1008.76 1009.10 1009.66 1010.10 1010.35 1010.76 1011.01 1011.20 1011.17 1011.45 1011.70 1011.81 1011.97 1012.23 1012.45
1010.07 1010.60 1010.73 1009.14 1007.78 1006.40 1004.56 1003.67 1003.33 1003.09 1002.36 1001.99 1001.51 1002.34 1002.58 1002.24 1002.44 1003.10 1003.67 1004.31 1004.69 1005.16 1005.05 1005.06 1005.31 1005.62 1006.04 1006.37 1006.32 1006.72 1007.09 1007.37 1007.69 1008.08 1008.36 1008.87 1009.32 1009.66 1010.03 1010.60 1010.77 1011.04 1011.16 1011.19 1011.51 1011.65 1011.70 1012.02 1012.27
1009.58 1010.33 1010.27 1008.52 1007.40 1005.98 1004.73 1004.05 1003.46 1002.97 1002.86 1002.28 1002.46 1002.08 1001.62 1001.60 1002.33 1003.41 1004.18 1004.26 1004.67 1004.84 1005.20 1005.27 1005.23 1005.63 1005.48 1006.01 1006.17 1006.31 1006.78 1007.28 1007.58 1007.83 1008.16 1008.58 1009.12 1009.54 1009.74 1010.25 1010.64 1010.76 1010.92 1010.95 1011.11 1011.42 1011.43 1011.80 1011.99
1009.43 1009.37 1008.46 1007.29 1006.64 1005.64 1004.74 1004.20 1003.94 1003.52 1003.39 1002.77 1002.56 1002.13 1002.06 1002.10 1002.75 1003.15 1003.87 1004.08 1004.23 1004.39 1004.36 1004.49 1004.85 1004.75 1005.20 1005.49 1005.98 1006.21 1006.51 1006.84 1007.15 1007.38 1007.76 1008.24 1008.71 1009.14 1009.44 1009.93 1010.23 1010.43 1010.47 1010.63 1010.78 1011.06 1011.27 1011.56 1011.84
1008.61 1007.73 1007.08 1006.10 1006.03 1005.65 1005.04 1004.89 1004.20 1003.97 1003.35 1002.75 1002.60 1002.31 1002.07 1002.25 1002.59 1002.85 1003.12 1003.28 1003.09 1002.65 1003.41 1003.65 1004.01 1004.21 1004.61 1004.88 1005.30 1005.62 1005.84 1006.29 1006.72 1006.99 1007.33 1007.89 1008.54 1008.94 1009.31 1009.85 1009.98 1010.15 1010.20 1010.47 1010.62 1010.78 1011.03 1011.44 1011.68
1007.75 1007.17 1006.77 1005.57 1005.62 1005.55 1004.68 1004.62 1004.20 1003.79 1003.39 1002.25 1002.32 1002.38 1002.58 1002.54 1002.38 1002.58 1002.68 1002.50 1002.45 1002.48 1002.29 1002.44 1002.95 1003.64 1003.98 1004.31 1004.53 1004.83 1005.44 1005.86 1006.29 1006.43 1007.00 1007.54 1008.23 1008.71 1009.12 1009.54 1009.72 1010.05 1010.02 1010.04 1010.35 1010.67 1010.82 1011.19 1011.29
1007.17 1006.97 1006.55 1005.65 1005.58 1005.23 1004.97 1004.10 1004.05 1003.30 1003.18 1002.96 1002.69 1002.40 1002.35 1002.18 1002.25 1001.60 1001.55 1001.76 1001.69 1002.06 1001.74 1001.86 1002.26 1002.67 1003.06 1003.69 1003.96 1004.31 1004.43 1004.84 1005.39 1006.10 1006.51 1006.99 1007.74 1008.15 1008.71 1009.20 1009.41 1009.50 1009.69 1009.75 1010.11 1010.44 1010.71 1011.03 1011.03
1006.66 1006.67 1006.45 1005.98 1005.27 1005.21 1005.19 1003.95 1003.83 1002.97 1002.31 1002.31 1002.34 1002.02 1001.79 1001.87 1001.66 1001.44 1001.61 1001.49 1001.33 1000.90 1001.05 1001.14 1001.58 1001.73 1002.47 1002.93 1003.26 1003.34 1003.95 1004.43 1005.13 1005.61 1005.84 1006.50 1007.15 1007.78 1008.32 1008.90 1009.04 1009.27 1009.36 1009.40 1009.64 1010.03 1010.24 1010.51 1010.76
1006.72 1006.85 1006.34 1005.79 1005.50 1004.90 1005.05 1003.38 1002.41 1002.58 1002.27 1002.12 1001.45 1001.32 1001.18 1001.01 1000.98 1001.09 1000.73 1000.67 1000.54 1000.19 1000.09 1000.53 1000.29 1001.36 1001.79 1001.95 1002.36 1002.93 1003.27 1003.96 1004.47 1005.00 1005.38 1005.97 1006.64 1007.26 1007.95 1008.30 1008.81 1008.77 1008.96 1009.16 1009.55 1009.68 1009.95 1010.32 1010.50
1007.08 1006.82 1006.10 1005.02 1005.52 1004.99 1005.09 1000.70 1001.91 1001.85 1001.95 1001.50 1001.11 1000.85 1000.81 1000.31 1000.13 999.95 1000.03 1000.12 999.78 999.89 999.91 999.54 999.71 1000.24 1000.70 1001.18 1001.68 1002.26 1002.78 1003.46 1004.03 1004.56 1004.93 1005.51 1006.08 1006.59 1007.27 1007.90 1008.30 1008.51 1008.78 1009.08 1009.35 1009.60 1009.80 1010.09 1010.28
1007.32 1005.83 1005.19 1005.35 1004.38 1004.54 1004.45 1000.13 1002.08 1001.91 1001.88 1001.34 1000.99 1000.58 1000.38 1000.03 999.90 999.71 999.57 999.42 999.18 998.99 999.03 999.18 999.21 999.80 1000.15 1000.83 1001.41 1001.92 1002.47 1003.16 1003.73 1004.24 1004.70 1005.09 1005.52 1005.96 1006.68 1007.42 1007.98 1008.19 1008.58 1008.84 1009.11 1009.45 1009.53 1010.02 1010.12
1006.52 1006.03 1005.34 1004.84 1004.39 1004.28 1003.85 1001.08 1002.04 1001.97 1001.95 1001.27 1000.76 1000.42 1000.14 999.88 999.51 999.21 998.85 998.39 998.49 998.38 998.56 998.65 998.74 999.56 999.99 1000.61 1001.37 1001.96 1002.47 1003.01 1003.47 1003.83 1004.30 1004.68 1005.16 1005.54 1006.34 1007.16 1007.72 1007.97 1008.29 1008.75 1009.07 1009.20 1009.33 1009.47 1009.72
1006.51 1006.44 1006.38 1005.14 1004.65 1004.43 1003.55 1002.08 1001.89 1001.91 1001.66 1001.02 1000.35 1000.07 999.59 999.33 999.06 998.77 998.33 998.06 998.11 998.10 998.31 998.11 998.50 999.06 999.96 1000.96 1001.59 1002.26 1002.33 1002.84 1003.41 1003.64 1003.93 1004.38 1004.81 1005.45 1006.08 1006.75 1007.35 1007.62 1008.14 1008.25 1008.50 1008.84 1009.19 1009.43 1009.67
1006.86 1006.90 1006.74 1006.06 1005.20 1004.95 1004.14 1002.78 1002.35 1001.81 1000.96 1000.34 999.88 999.64 999.19 999.00 998.89 998.34 998.02 997.95 997.75 997.67 997.70 998.06 998.25 998.84 999.46 999.97 1000.76 1001.39 1002.02 1002.58 1003.02 1003.41 1003.78 1004.09 1004.56 1005.12 1005.67 1006.20 1006.84 1007.35 1007.72 1008.03 1008.38 1008.72 1008.98 1009.06 1009.17
1006.75 1006.88 1007.04 1006.87 1006.24 1005.21 1005.12 1003.04 1002.12 1000.91 1000.35 999.76 998.97 998.74 998.45 998.82 998.65 998.02 997.80 997.64 997.50 997.47 997.44 998.01 998.19 998.71 999.27 999.80 1000.61 1001.44 1001.97 1002.49 1003.21 1003.66 1003.89 1004.11 1004.48 1004.91 1005.33 1005.98 1006.57 1007.10 1007.40 1007.64 1007.99 1008.32 1008.66 1008.91 1009.04
1006.72 1007.02 1006.93 1007.08 1007.16 1006.57 1005.79 1002.84 1002.17 1000.35 999.54 999.20 998.65 998.15 998.12 998.10 997.76 997.70 997.64 997.48 997.10 997.01 997.50 998.37 998.41 998.96 999.33 999.68 1000.24 1001.07 1001.95 1002.63 1003.13 1003.58 1003.87 1004.24 1004.61 1005.02 1005.55 1006.07 1006.63 1006.94 1007.08 1007.40 1007.68 1007.97 1008.37 1008.70 1009.05
1006.40 1007.17 1007.17 1007.44 1007.50 1007.21 1006.21 1005.47 998.49 1000.05 998.36 998.06 997.83 997.39 997.35 996.91 997.18 997.17 996.98 997.11 996.87 997.18 997.74 998.35 998.83 999.08 999.35 1000.05 1000.23 1001.17 1002.03 1002.49 1003.12 1003.75 1004.15 1004.50 1004.77 1005.17 1005.67 1005.97 1006.46 1006.65 1006.86 1007.11 1007.28 1007.74 1008.08 1008.37 1008.72
1006.43 1006.72 1007.19 1007.63 1008.09 1007.10 1005.80 1005.56 998.64 998.97 997.16 996.97 996.56 996.68 996.51 996.71 996.85 996.80 996.72 996.74 997.12 997.47 997.95 998.43 998.80 999.42 999.74 1000.28 1000.63 1001.31 1002.02 1002.63 1003.30 1003.92 1004.39 1004.76 1005.01 1005.33 1005.62 1005.99 1006.25 1006.49 1006.66 1006.89 1007.12 1007.42 1007.76 1008.11 1008.42
1006.62 1007.27 1007.87 1008.58 1008.26 1006.01 1004.79 1004.78 998.70 997.12 996.58 996.24 996.09 996.30 996.32 996.16 996.45 996.64 996.73 996.94 997.27 997.61 998.19 998.63 999.01 999.82 1000.14 1000.58 1001.16 1001.67 1002.19 1002.61 1003.15 1003.81 1004.32 1004.73 1005.13 1005.39 1005.56 1005.79 1006.08 1006.27 1006.42 1006.67 1006.96 1007.29 1007.57 1007.82 1008.13
1006.51 1007.27 1007.31 1007.50 1007.01 1006.13 1005.06 1002.09 997.54 997.40 996.03 995.61 995.96 996.10 995.73 995.82 995.97 996.11 996.28 996.92 997.34 998.03 998.32 998.93 999.39 1000.04 1000.47 1001.05 1001.70 1002.07 1002.47 1002.79 1003.33 1003.81 1004.25 1004.62 1004.89 1005.14 1005.35 1005.60 1005.92 1006.12 1006.33 1006.61 1006.87 1007.13 1007.32 1007.53 1007.82
1006.22 1006.86 1006.95 1007.37 1006.84 1006.23 1003.52 1000.05 998.05 996.61 996.05 995.53 995.69 995.48 995.48 995.70 995.56 995.79 996.36 997.12 997.45 998.24 998.75 999.09 999.71 1000.31 1000.75 1001.40 1002.00 1002.50 1002.80 1003.09 1003.51 1003.96 1004.23 1004.55 1004.83 1005.05 1005.26 1005.52 1005.80 1006.02 1006.29 1006.54 1006.80 1007.04 1007.22 1007.40 1007.52
1005.78 1006.25 1007.15 1007.38 1006.86 1005.69 1002.66 1000.37 997.38 996.22 996.16 995.43 995.35 995.99 995.57 995.07 995.11 995.72 996.36 997.03 997.81 998.40 998.91 999.46 999.91 1000.40 1001.06 1001.58 1002.11 1002.60 1002.95 1003.19 1003.57 1003.97 1004.38 1004.54 1004.71 1004.95 1005.23 1005.58 1005.86 1006.05 1006.28 1006.51 1006.72 1006.91 1007.00 1007.16 1007.24
1006.41 1006.35 1006.58 1006.58 1006.34 1004.85 1002.87 999.11 996.93 996.75 996.08 996.28 996.05 995.65 995.23 994.48 995.08 995.70 996.35 997.12 997.91 998.52 999.10 999.73 1000.17 1000.67 1001.28 1001.72 1002.29 1002.77 1003.12 1003.34 1003.62 1003.95 1004.20 1004.41 1004.73 1005.03 1005.33 1005.67 1005.88 1006.06 1006.20 1006.50 1006.69 1006.82 1006.91 1007.08 1007.19
1006.68 1006.66 1006.56 1006.69 1006.01 1004.51 1003.21 998.46 996.17 996.42 996.38 996.38 996.10 995.71 995.45 995.43 995.80 996.17 996.47 997.20 998.04 998.63 999.32 999.90 1000.47 1000.72 1001.26 1001.77 1002.38 1002.87 1003.23 1003.53 1003.77 1004.00 1004.13 1004.37 1004.77 1005.05 1005.36 1005.64 1005.91 1006.15 1006.16 1006.42 1006.68 1006.83 1006.83 1007.01 1007.07
Wind_Speed
6 3 1 3 3 5 4 7 3 5 1 4 3 9 5 2 7 7 4 11 9 12 13 18 21 21 20 19 18 17 17 17 17 17 16 16 16 15 14 12 10 9 8 7 5 5 4 2 0
5 3 2 2 4 2 6 6 8 6 3 5 6 5 4 1 2 1 4 7 8 15 13 15 22 22 22 21 21 19 19 19 19 19 18 17 16 15 14 13 12 10 8 7 6 5 4 3 2
6 2 2 4 4 7 6 6 2 6 8 3 2 4 8 3 2 4 1 12 12 14 14 15 23 23 24 23 21 21 19 18 18 19 18 18 17 16 14 14 13 12 10 8 7 6 5 5 5
3 3 3 2 9 6 6 3 4 8 8 6 1 6 2 2 5 7 10 13 14 13 13 18 24 24 23 22 20 20 20 19 19 18 18 18 18 16 15 16 14 13 12 10 8 7 7 7 7
3 3 2 3 6 5 4 5 3 10 5 3 2 2 0 2 2 9 12 13 15 12 12 16 25 23 21 21 21 20 20 20 19 18 18 18 17 16 16 15 15 14 13 11 10 8 8 8 8
2 2 1 6 5 4 6 5 5 3 7 4 4 5 3 1 6 8 10 11 12 16 14 13 19 20 22 22 22 21 21 21 20 19 18 17 16 16 16 15 14 13 12 11 11 10 7 7 7
7 4 4 4 4 3 5 4 2 4 6 5 8 5 3 3 6 5 10 8 9 9 12 11 13 16 21 22 21 21 21 21 20 20 19 18 17 16 15 15 14 13 12 11 11 10 8 8 9
5 5 4 5 4 4 4 1 2 6 8 7 4 2 4 6 9 6 3 3 2 2 7 9 11 13 13 13 22 22 22 22 21 20 20 18 18 17 16 14 13 13 12 11 12 12 9 9 8
5 3 5 6 6 5 6 5 2 5 4 6 6 4 8 7 7 7 2 1 3 5 6 6 10 12 13 12 14 20 22 21 20 19 19 16 8 9 12 12 13 14 13 13 12 12 10 9 10
5 5 10 8 10 3 6 9 8 4 3 5 5 5 1 2 5 9 8 10 9 11 10 10 11 14 13 11 10 12 10 11 12 11 12 9 8 7 9 11 15 15 15 14 13 12 11 10 3
7 10 18 8 9 3 6 9 5 7 8 8 3 11 8 2 7 8 10 10 15 21 9 15 15 14 14 13 9 7 7 7 8 11 9 8 6 5 5 3 4 4 10 4 7 7 4 5 4
4 13 15 15 11 4 14 6 11 14 12 16 14 6 8 11 10 9 9 11 8 10 16 15 17 14 14 9 10 10 8 8 8 9 10 8 6 6 5 5 5 4 4 5 5 3 4 5 5
15 7 9 18 15 10 10 17 14 19 14 13 14 14 12 11 11 9 9 8 9 7 10 14 13 14 14 13 9 9 11 10 9 8 10 9 8 7 6 5 4 5 4 5 4 4 4 5 5
2 11 15 11 10 6 12 21 15 14 19 14 11 11 11 11 12 7 8 9 9 10 9 10 13 16 13 14 14 11 9 9 8 8 9 11 8 6 6 6 6 4 4 4 5 6 6 5 4
4 7 10 10 4 7 1 23 25 18 15 16 18 16 10 10 9 11 10 9 10 8 10 11 16 11 13 17 14 9 8 8 9 8 10 12 10 7 8 6 4 6 4 5 4 4 4 3 4
4 4 15 12 10 6 7 29 11 11 14 19 12 9 9 12 9 10 9 10 11 8 10 9 10 14 15 14 11 9 8 8 8 8 8 12 12 10 6 5 5 4 4 5 4 4 4 4 4
5 17 17 9 5 8 17 30 13 14 12 16 13 14 14 15 11 10 12 13 12 12 12 10 10 11 13 9 7 7 7 7 7 7 7 11 11 9 7 5 5 5 4 4 4 3 3 3 4
10 12 11 11 4 11 15 27 12 10 13 17 17 17 19 19 18 17 18 16 10 10 7 7 6 8 8 6 5 4 5 4 6 7 7 10 8 9 7 5 5 5 4 4 3 4 4 3 4
4 9 3 8 10 14 19 24 20 15 11 17 18 18 18 11 11 15 14 12 9 9 9 9 8 7 9 6 5 4 6 4 3 4 8 8 7 8 7 5 5 5 6 7 7 3 4 4 2
6 5 3 7 8 4 10 17 10 10 13 15 18 17 16 14 11 17 12 9 11 9 9 8 7 9 6 4 4 4 4 3 3 4 6 8 8 9 8 6 5 6 4 4 4 4 2 3 5
6 11 8 5 9 17 12 18 12 13 9 12 17 10 10 9 14 15 10 11 8 9 8 7 8 9 8 9 7 4 4 4 3 3 3 3 6 6 6 6 5 5 4 4 4 4 5 3 2
11 4 5 8 5 11 3 19 18 21 24 20 19 18 9 11 14 10 11 9 10 8 6 6 8 9 8 8 8 11 5 4 2 3 3 4 5 6 5 5 5 5 3 4 4 4 3 3 3
11 10 9 12 6 4 7 6 24 8 22 17 15 17 13 18 11 13 11 11 6 7 6 7 7 8 9 7 9 7 5 4 3 3 6 4 4 6 6 6 4 4 4 4 5 4 5 3 3
1 4 7 7 3 7 8 9 26 10 21 19 21 12 16 10 10 10 7 4 5 6 7 8 10 7 8 7 8 9 8 7 5 4 4 4 3 3 4 5 5 4 4 4 4 4 5 4 3
4 4 1 1 3 11 13 10 25 6 3 5 8 10 12 11 9 7 7 7 8 10 8 7 10 8 7 8 7 7 8 8 8 6 4 5 3 2 3 5 5 3 4 4 4 4 5 5 4
6 9 5 7 5 7 6 16 18 13 23 21 19 13 10 10 8 9 9 8 9 9 10 9 10 9 8 8 8 6 8 5 5 5 4 4 3 3 4 4 4 4 4 4 4 3 3 4 4
2 5 7 4 4 2 7 11 19 20 15 14 10 9 10 9 9 9 8 7 10 10 8 10 10 10 9 9 8 7 6 7 6 6 4 3 3 3 5 5 4 4 4 4 4 3 4 4 4
7 5 4 1 6 6 7 9 13 6 19 19 15 10 11 10 9 9 10 11 9 10 8 8 9 12 10 9 7 6 7 6 6 5 6 5 4 4 5 4 4 4 3 4 4 3 3 5 4
1 3 4 3 5 5 3 9 7 12 9 5 9 11 13 11 8 11 12 11 11 10 10 9 10 11 9 8 7 7 6 6 6 5 5 6 5 6 5 5 4 3 4 3 3 3 4 4 4
4 4 3 7 7 11 1 11 8 3 7 7 9 11 9 1 6 9 13 13 12 12 11 10 8 10 8 7 7 6 6 6 5 5 5 5 5 4 5 4 3 3 4 3 4 4 4 5 5
Wind_Direction
147 169 221 48 78 71 263 258 255 268 233 229 210 126 190 176 167 210 310 167 129 138 163 167 171 172 173 174 172 169 163 157 153 154 154 155 155 156 155 155 156 157 158 160 166 168 169 176 183
129 148 360 86 112 134 259 247 253 247 269 263 187 105 105 271 168 235 103 171 149 148 162 167 172 176 176 178 176 173 170 166 162 162 162 163 164 165 164 166 167 172 179 182 191 199 202 215 232
153 135 122 148 180 188 214 218 348 301 287 271 296 116 147 203 124 188 233 143 138 157 166 171 176 181 180 182 179 175 174 170 170 169 169 170 172 172 174 178 178 181 189 198 206 216 224 234 241
146 41 346 158 227 252 211 258 327 294 281 198 82 70 81 191 175 181 143 147 148 164 170 177 181 184 184 182 180 178 176 175 177 178 177 175 178 180 182 187 188 189 194 205 216 224 235 244 250
47 77 228 226 251 263 247 251 226 270 276 26 39 99 255 340 27 137 155 156 161 173 180 184 187 184 183 185 186 183 180 181 182 183 183 183 182 186 192 195 194 196 198 203 218 231 244 255 259
94 107 195 236 232 244 260 265 311 310 267 297 118 119 194 313 154 180 165 171 177 175 181 190 188 188 187 187 189 189 185 185 186 187 187 189 189 191 195 202 206 203 207 211 215 228 235 254 258
132 102 236 248 257 261 248 211 249 278 290 286 145 115 229 219 229 165 181 177 186 176 176 178 189 196 197 192 194 192 190 191 190 191 190 190 193 198 198 205 210 215 213 220 227 232 232 237 246
128 111 273 245 219 243 241 229 183 45 329 311 120 163 215 226 204 169 168 49 42 240 199 183 183 191 200 203 197 196 196 195 195 195 192 194 196 198 200 210 213 220 225 223 235 234 230 235 239
138 113 238 239 181 232 320 21 152 334 6 354 351 164 215 203 146 118 107 163 189 206 208 202 187 206 198 205 209 202 202 201 201 199 197 194 193 202 200 203 213 222 227 231 232 236 229 233 241
162 167 224 216 224 270 317 310 336 325 26 300 326 293 347 296 160 172 190 216 212 217 212 190 199 202 200 202 204 205 202 204 203 200 197 193 182 185 190 202 218 224 231 234 232 229 228 236 220
194 212 231 236 228 248 278 285 298 307 294 207 260 292 319 256 221 207 210 207 213 216 192 201 204 206 197 200 195 199 199 200 202 198 187 185 180 188 195 188 218 219 234 220 235 228 207 208 213
213 224 236 253 240 249 262 275 281 274 263 297 293 265 289 275 273 212 231 239 215 198 214 206 206 200 201 196 200 200 200 200 203 198 184 178 179 185 184 195 209 210 210 204 206 198 196 216 228
242 222 242 251 252 253 272 261 255 264 266 269 279 275 262 257 252 253 248 258 249 229 220 217 200 199 197 199 199 198 201 201 197 188 187 183 187 186 178 197 202 212 200 197 196 192 198 215 228
187 216 246 264 264 252 267 271 264 263 270 272 259 254 258 245 248 261 260 254 257 251 235 209 203 203 188 202 205 204 199 194 190 187 187 185 185 175 189 211 217 209 202 194 186 198 203 213 207
255 284 272 230 246 250 348 268 252 248 267 262 261 263 249 254 250 235 247 253 242 244 247 202 204 186 195 202 206 198 194 187 190 187 178 181 182 181 184 202 214 213 196 188 194 193 178 216 224
219 202 240 251 214 235 167 256 257 228 235 255 266 262 267 271 268 279 262 250 261 249 250 228 183 191 195 200 198 193 187 185 188 180 172 183 187 179 175 185 213 225 185 185 181 182 190 205 200
244 240 232 256 199 201 200 260 248 255 255 266 273 276 281 282 285 279 264 258 251 236 239 223 181 192 194 192 183 183 169 179 175 161 175 184 183 175 187 172 192 185 177 175 176 185 158 182 223
216 229 237 233 200 215 246 259 243 272 278 273 270 273 271 270 272 272 270 268 262 248 242 232 172 180 165 141 126 113 135 150 164 173 176 173 176 166 164 172 182 183 155 184 180 186 199 195 214
15 253 2 264 220 211 237 258 259 252 241 253 257 257 262 256 263 270 266 264 269 246 220 210 186 164 144 148 145 148 175 148 146 163 166 161 153 156 158 176 182 164 184 194 191 171 199 222 208
266 276 271 295 296 251 279 276 281 261 254 248 254 261 264 272 278 273 271 259 249 243 216 216 184 157 156 123 113 138 139 123 136 150 161 162 165 164 178 177 182 181 192 190 197 207 223 228 182
219 240 255 252 327 299 306 284 279 262 246 260 266 253 250 236 258 269 273 249 250 230 208 188 154 137 136 129 116 80 75 72 82 80 90 148 160 171 165 179 181 202 198 206 207 199 193 178 203
253 198 240 236 212 261 206 287 275 276 271 259 259 260 251 242 250 253 260 267 229 217 138 145 132 139 132 143 128 147 139 135 140 138 146 175 173 170 163 172 186 221 198 200 189 180 168 142 163
251 253 257 229 234 263 240 308 269 216 263 252 244 256 251 250 248 253 250 241 224 149 140 131 133 124 129 142 136 131 114 109 120 119 132 129 132 150 165 181 193 197 191 202 177 163 177 174 148
140 204 219 226 123 251 204 190 277 238 244 248 244 229 247 251 247 249 265 179 149 124 133 138 133 127 123 128 120 133 132 128 115 114 131 131 129 144 176 169 176 190 183 185 191 193 185 181 172
162 79 175 157 204 229 191 188 238 254 241 230 234 240 247 250 258 222 197 178 154 153 140 133 132 126 118 113 119 130 132 136 137 146 144 144 140 173 191 170 173 175 186 193 183 182 192 185 189
178 162 175 185 187 226 152 226 237 230 261 264 266 272 258 261 246 229 199 171 154 146 140 130 133 123 119 116 117 115 128 124 128 140 141 154 169 172 160 166 163 181 187 190 189 186 189 185 199
196 164 201 15 235 231 233 276 281 275 273 283 272 274 271 256 233 208 154 150 142 141 137 133 127 126 122 121 120 122 123 127 141 146 140 156 152 160 156 146 155 182 179 178 173 186 191 186 193
165 191 83 289 212 233 254 256 238 226 238 266 278 295 286 259 206 161 149 141 134 132 124 123 128 133 132 126 130 135 141 134 141 145 149 157 143 134 137 141 168 173 179 180 174 184 203 193 205
244 194 203 187 201 228 293 258 203 215 254 260 287 292 294 271 170 151 139 132 132 130 133 133 132 132 133 135 130 135 141 137 149 147 153 149 140 143 147 171 172 178 158 172 183 209 179 164 157
248 210 197 209 231 239 313 259 316 234 346 326 311 315 302 104 133 144 137 134 140 140 138 141 143 138 148 138 132 138 134 145 153 150 151 146 146 150 166 168 150 213 187 170 200 191 171 164 169